> Flugplatz > 
Bitte achten Sie beim Anflug auf mögliche Fallschirmspringer auf der Nord seite desPlatzes, kontaktieren Sie zur Sicherheit den Flugleiter auf Leutkirch INFO 122,875.
Zollabfertigung:
für Ein- und Ausflug bei Voranmeldung mindestens 3 Stunden, nur Personenverkehr – keine Warenabfertigung.
Günstig Tanken:
Avgas 100 II · Super 95 · Jet A1 · Diesel
Achtung! Sommer-Öffnungszeiten:
15.03.2016 – 31.10.2016:
Täglich 09:00 – SS+30/20:00 (loc)
So/Hol  10:30 – SS+30/20:00 (loc)

Weitere Informationen finden Sie in unserem Newsbereich.

Nutzen Sie unsere Online-Anmeldung zur Zoll- und Passkontrolle.
Aktuelles:
Sicherheits- und Servicehinweise:
2016/07/30 21:20 EDJA 302120Z 21008KT CAVOK 20/15 Q1015
2016/07/31 01:20 EDNY 310120Z AUTO VRB02KT CAVOK 17/15 Q1014
2016/07/31 01:20 ETHL 310120Z 27003KT 9999 FEW100 17/16 Q1014 BLU+
Aktuelle METAR Daten (Memmingen, Friedrichshafen, Laupheim):